GPS BIIF-1 (PRN 25)

Last updated on Sun Apr 12 2026 00:03:23 GMT+0000 (Coordinated Universal Time)

1 36585U 10022A 26100.08827338 -.00000010 00000+0 00000+0 0 9990 2 36585 54.2807 211.3047 0126887 66.0529 248.7968 2.00559100116221
UTC large
Height (km)
Speed (km/s)
/
Latitude / Longitude
Inclination (degrees)
Orbital Period (minutes)
Azimuth
Elevation
Range (km)
Doppler Factor

Next 0 passes for location: London (51.5072 / 0.1276)

Sorry there are no passes over London.
GPS BIIF-1 (PRN 25)